Volver al catálogo

FENGYUN 1C DEB *

ActivoSSO
NORAD 47036·DEBRIS·🇨🇳 China

Lanzado May 10, 1999 desde Taiyuan Satellite Launch Center

Loading…

Próximos Pases (próximas 24 horas)

TLE

ActualizadoSource: Space-Track

Época: Sep 14, 2026, 09:19 UTC

1 47036U 99025FBN 26257.38880495  .00000130  00000-0  86764-4 0  9991
2 47036  98.6869 299.1610 0068195  30.4280 343.0202 14.15318173638265

Sigue FENGYUN 1C DEB * en tiempo real con AllMySat

Download on the App Store